Location: Unspecified
(0.0000°N, 0.0000°E)
Time: 08:58:29
(UTC+00:00)

ITAMSAT 1 - Pass Details

Date: 08 December 2017
Orbit: 785 x 796 km, 98.9° (Epoch: 19 July)

Event Time Altitude Azimuth Distance (km) Brightness Sun altitude
Exits shadow 03:58:08 15° 213° (SSW) 2,008 9.7 -26.0°
Drops below altitude 10° 03:59:03 10° 210° (SSW) 2,343 10.1 -25.8°
Sets 04:01:27 0° 204° (SSW) 3,274 10.9 -25.3°
